Regional Weather Roundup
Issued by NWS

Home | Current Version | Previous Version | Graphics & Text | Print | Product List | Glossary On
Versions: 1 2 3 4 5 6 7 8 9 10 11 12 13 14 15 16 17 18 19 20 21 22 23 24 25 26 27 28 29 30 31 32 33 34 35 36 37 38 39 40 41 42 43 44 45 46 47 48 49 50
000
ASUS43 KIND 260909
RWRIN

WEATHER ROUNDUP FOR INDIANA
NATIONAL WEATHER SERVICE INDIANAPOLIS IN
500 AM EDT SAT MAY 26 2018

NOTE: "FAIR" INDICATES FEW OR NO CLOUDS BELOW 12,000 FEET WITH NO
SIGNIFICANT WEATHER AND/OR OBSTRUCTIONS TO VISIBILITY.

* - STATION DOES NOT REPORT WEATHER SUCH AS PRECIPITATION OR FOG.

+ - STATION NOT QUALITY CONTROLLED BY THE NATIONAL WEATHER SERVICE.
    USE DATA WITH CAUTION...ESPECIALLY DEWPOINT AND RELATIVE
    HUMIDITY OBSERVATIONS.

INZ001>003-010>013-019-020-261000-
NORTHWEST INDIANA

CITY           SKY/WX    TMP DP  RH WIND       PRES   REMARKS
GARY /AIRPORT/ CLOUDY    72  66  81 SW3       29.78R
KNOX *+        CLOUDY    68  64  88 CALM      29.79R
LA PORTE +     FAIR      69  65  86 S3        29.79S
MICHIGAN CITY+ MOCLDY    68  63  83 CALM      29.78R
MONTICELLO +   FAIR      68  67  96 S5        29.79S
RENSSELAER +   FAIR      70  63  78 S7        29.79S
VALPARAISO     FAIR      70  67  90 S6        29.78S

$$

LMZ046-743>745-261000-
SOUTHERN LAKE MICHIGAN

STATION/POSITION TIME  TEMP    WIND        PRES    WAVE
                       AIR SEA DIR/SP/G            HT
                 (UTC) (F)     (DEG/KT/KT) (MB)    (FT)
BURNS HARBOR     0840   71     180/  9/ 13 1008.5S
MICHIGAN CITY    0840   71     160/  4/  6   N/A
5NW MICH CITY    0850   64 61  190/  2/  4   N/A     1

$$

INZ004-005-014>016-021>024-261000-
NORTH CENTRAL INDIANA

CITY           SKY/WX    TMP DP  RH WIND       PRES   REMARKS
GOSHEN         LGT RAIN  70  65  84 S5        29.80S
LOGANSPORT +   FAIR      68  64  88 S6        29.81S
PERU/GRISSOM   MOCLDY    69  69 100 S6        29.79F
ROCHESTER +    FAIR      72  68  88 CALM      29.80S
SOUTH BEND     CLOUDY    69  63  81 CALM      29.79S
WARSAW +       LGT RAIN  68  64  88 CALM      29.80F

$$

INZ006>009-017-018-025>027-261000-
NORTHEAST INDIANA

CITY           SKY/WX    TMP DP  RH WIND       PRES   REMARKS
ANGOLA *+      MOCLDY    70  61  73 CALM      29.80S
AUBURN +       FAIR      70  61  73 CALM      29.81S
FORT WAYNE     LGT RAIN  70  63  78 S3        29.81F
HUNTINGTON +   CLOUDY    67  66  96 CALM      29.80F
KENDALLVILLE + MOCLDY    69  56  63 SW3       29.81S

$$

INZ028-029-035-036-043>045-051>053-261000-
WEST CENTRAL INDIANA

CITY           SKY/WX    TMP DP  RH WIND       PRES   REMARKS
CRAWFORDSVL +  FAIR      67  63  87 SW7       29.82S
GREENCASTLE +  FAIR      68  64  88 CALM      29.83S
LAFAYETTE      FAIR      68  66  93 CALM      29.79S
TERRE HAUTE    FAIR      69  65  86 S7        29.81F

$$

INZ030>032-037>040-046>048-054>057-064-065-261000-
CENTRAL INDIANA

CITY           SKY/WX    TMP DP  RH WIND       PRES   REMARKS
ANDERSON       FAIR      70  63  78 S3        29.83F
FISHERS *+     FAIR     N/A N/A N/A CALM      29.83S
FRANKFORT +    FAIR      69  65  85 CALM      29.83S
GREENWOOD *+   FAIR      70  64  83 CALM      29.84S
INDIANAPOLIS   MOCLDY    69  65  86 SW6       29.83S
-EAGLE CREEK   FAIR      71  65  81 S3        29.82S
KOKOMO +       FAIR      69  65  86 S7        29.82S
MARION +       MOCLDY    69  63  80 CALM      29.82S
MT COMFORT *+  FAIR      70  68  94 S3        29.84S
SHELBYVILLE    FAIR      71  62  73 S6        29.83S
ZIONSVILLE +   FAIR      69  63  81 SW5       29.83F

$$

INZ033-034-041-042-049-050-058-059-261000-
EAST CENTRAL INDIANA

CITY           SKY/WX    TMP DP  RH WIND       PRES   REMARKS
MUNCIE         FAIR      74  63  68 SW6       29.82F
RICHMOND +     FAIR      68  63  83 SW5       29.86S

$$

INZ060-061-067>069-081>083-085>088-261000-
SOUTHWEST INDIANA

CITY           SKY/WX    TMP DP  RH WIND       PRES   REMARKS
EVANSVILLE     FAIR      70  69  97 S5        29.84S
HUNTINGBURG +  FAIR      69  67  93 S3        29.85F
WASHINGTON +   FAIR      68  66  93 S3        29.84S

$$

INZ062-063-066-070>080-084-089>092-261000-
SOUTH CENTRAL AND SOUTHEAST INDIANA

CITY           SKY/WX    TMP DP  RH WIND       PRES   REMARKS
BATESVILLE +   PTCLDY    68  64  88 CALM      29.85S
BEDFORD +      FAIR      68  63  83 S5        29.85S
BLOOMINGTON    FAIR      69  65  86 SW6       29.84S
FRENCH LICK *+ FAIR      68 N/A N/A CALM      29.86F
MADISON *+     MOCLDY    70  63  78 SW3       29.88S
NORTH VERNON + FAIR      68  63  83 S5        29.85S
SEYMOUR +      FAIR      70  64  83 S3        29.85S

$$





USA.gov is the U.S. government's official web portal to all federal, state and local government web resources and services.